Showing default

KINEIS-4C, 63301

Orbit data source: Space-Track

KINEIS-4C, 63301 is a French payload satellite in SSO that was launched on Tue, 18 Mar 2025 UTC via an ELECTRON launch vehicle from the Rocket Lab Launch Complex (RLLC). Payload-class satellites include a variety of spacecraft equipped with specific instruments for various scientific and technological missions. These include communications satellites like Starlink; space stations such as the ISS; scientific satellites like the Hubble; Earth observation satellites from companies like Planet Labs, Umbra, and HawkEye 360; GPS; miniature CubeSats for education and research; and military/defense satellites.

Loading next visibility...
Identifier
63301, 2025-056B
Orbit
SSO
Last TLE update
4 hours ago
Origin
Manufacturer
KINEIS
Mission
Operational Commercial Communications
Bus & Motor
CUBESAT 16U, Unknown motor
Mass
28 kg wet, 28 kg dry
Launch date (UTC)
2025-03-18 (3 months ago)
Launch vehicle
ELECTRON
Launch site
Rocket Lab Launch Complex (RLLC)
Object type
Payload
Rocket body
Debris
Shape & HBR
Box + 2 Pan + 1 Ant, 1.6 m
Radar Cross Section
0.229 m², Medium (>0.1 m² and < 1m²)

Expand to show TLE details & history

TLE from 4 hours ago
0 KINEIS-4C
1 63301U 25056B   25182.17862009  .00001449  00000-0  23725-3 0  9992
2 63301  97.9840 307.7667 0002273  64.9477 295.1967 14.72249259 15481
Epoch: 2025-07-01T04:17Z
TLE epoch observation values (Epoch: 2025-07-01T04:17:12.775Z)
Latitude
0.00004°
Longitude
-36.01433°
Altitude
656.225 km
Speed
7.53 km/s
True Right ascension
20h 31m 04s
True Declination
0° 00' 00"
Sunlit
Object was in full shadow at epoch
Visualization orbit readout
Latitude
-79.63762°
Longitude
94.44721°
Altitude
683.441 km
Speed
7.513 km/s
Apparent Right ascension
07h 45m 38s
Apparent Declination
-62° 02' 28"
Sunlit
Object is in daylight
Visualization observer readout
Local Sidereal Time
20:22:39
Azimuth
168.797° S
Elevation
-67.174°
Doppler factor
1
Orbital elements
Apogee altitude
652.549 km
Perigee altitude
649.354 km
Semi-major axis
7,029.089 km
Eccentricity
0.00023
Inclination
97.984°
RAAN
307.7667°
Arg. of periapsis
64.9477°
True anomaly
Unknown
Mean anomaly
295.1967°
Eccentric anomaly
Unknown
Mean motion
3.68294 °/min
Orbital period
97.75 mins
BSTAR
0.00023725
Loading maneuver chart data...
Loading SW <> Apogee altitude chart data...
Loading historical data...
Loading historical data...
Loading historical data...
Loading historical data...
Loading historical data...
Loading historical data...
Loading historical data...

KINEIS-4C Visibility forecast

Observer location: undefined°, undefined°

Span
Click to sort rows by Start time (UTC) header in descending order
Start Az.
Max El. time (UTC)
Max El. Az.
Max El.
End time (UTC)
End Az.
6 mins2025-07-01 09:18:29.043Z219.242° SW2025-07-01 09:21:29.043Z268.786° W21.245°2025-07-01 09:24:29.043Z314.672° NW
7 mins2025-07-01 21:10:29.043Z17.273° NNE2025-07-01 21:13:29.043Z52.383° ENE43.196°2025-07-01 21:17:29.043Z187.556° SSW
7 mins2025-07-02 08:09:29.043Z148.41° SSE2025-07-02 08:12:29.043Z47.472° ENE40.767°2025-07-02 08:16:29.043Z354.431° N
|